Flag for Russia Weather past 2 weeks in Nizhny Novgorod, Russia

Now
43 °F

Clear.


Feels Like: 43 °F
Forecast: 39 / 65 °F
Wind: 1 mph from South

Location: Nizhny Novgorod/Strigino

Current Time: Sep 22, 2014 at 8:48:39 PM

Latest Report: Sep 22, 2014 at 8:30 PM


Visibility: 6 mi

Pressure: 30.01 "Hg

Humidity: 93%

Dew point: 41 °F

Location of Nizhny NovgorodLocation

Historic Weather in Nizhny Novgorod — Graph

°F

Nizhny Novgorod temperature yesterday

Maximum temperature yesterday: 70 °F (at 3:30 PM)
Minimum temperature yesterday: 36 °F (at 6:00 AM)
Average temperature yesterday: 51 °F

Past Weeks' High & Low Weather Summary

 TemperatureHumidityPressure
High73 °F (Sep 11, 4:00 PM)100% (Sep 8, 4:00 AM)30.39 "Hg (Sep 8, 4:00 AM)
Low30 °F (Sep 17, 3:00 AM)28% (Sep 22, 2:00 PM)30.01 "Hg (Sep 22, 5:00 PM)
Average52 °F75%30.23 "Hg
* Reported Sep 7 8:00 PM — Sep 22 8:00 PM, Nizhny Novgorod, Weather by CustomWeather, © 2014

Note: Actual official high and low records may vary slightly from our data, if they occured in-between our weather recording intervals... More about our weather records

Advertising

Nizhny Novgorod weather history for previous 24 hours

 ConditionsComfort  
Time TempWeatherWind HumidityBarometerVisibility
8:00 PM
Sep 22
45 °FSunny.No wind87%30.01 "Hg10 mi
7:30 PM46 °FSunny.No wind87%30.01 "Hg10 mi
7:00 PM52 °FSunny.No wind72%30.01 "Hg10 mi
6:30 PM59 °FSunny.No wind55%30.01 "Hg10 mi
6:00 PM64 °FSunny.3 mph37%30.01 "Hg10 mi
5:30 PM66 °FPassing clouds.3 mph30%30.01 "HgN/A
5:00 PM68 °FPassing clouds.3 mph28%30.01 "HgN/A
4:30 PM68 °FPassing clouds.3 mph28%30.04 "HgN/A
4:00 PM68 °FPassing clouds.8 mph28%30.04 "HgN/A
3:30 PM68 °FPassing clouds.6 mph28%30.04 "HgN/A
3:00 PM68 °FScattered clouds.6 mph28%30.04 "HgN/A
2:30 PM68 °FScattered clouds.6 mph28%30.04 "HgN/A
2:00 PM68 °FScattered clouds.8 mph28%30.07 "HgN/A
1:30 PM68 °FSunny.8 mph30%30.07 "Hg10 mi
1:00 PM66 °FSunny.8 mph35%30.07 "Hg10 mi
12:30 PM64 °FPassing clouds.6 mph43%30.07 "Hg6 mi
12:00 PM63 °FPassing clouds.6 mph52%30.07 "Hg6 mi
11:30 AM63 °FPassing clouds.8 mph45%30.07 "Hg6 mi
11:00 AM59 °FPassing clouds.6 mph55%30.09 "Hg4 mi
10:30 AM57 °FPassing clouds.6 mph59%30.09 "Hg4 mi
10:00 AM55 °FPassing clouds.6 mph63%30.09 "Hg4 mi
9:30 AM54 °FPassing clouds.3 mph67%30.09 "Hg4 mi
9:00 AM50 °FPassing clouds.6 mph76%30.09 "Hg4 mi
8:30 AM48 °FPassing clouds.3 mph87%30.09 "Hg4 mi
8:00 AM43 °FFog.3 mph100%30.09 "Hg3 mi
7:30 AM39 °FFog.3 mph100%30.09 "Hg3 mi
7:00 AM39 °FFog.1 mph93%30.09 "Hg2 mi
6:30 AM39 °FFog.3 mph93%30.09 "Hg3 mi
6:00 AM37 °FFog.3 mph100%30.09 "Hg2 mi
5:30 AM37 °FFog.No wind100%30.09 "Hg1 mi
5:00 AM37 °FFog.No wind100%30.09 "Hg1 mi
4:00 AM37 °FFog.No wind100%30.09 "Hg1 mi
3:30 AM39 °FFog.No wind93%30.09 "Hg2 mi
3:00 AM39 °FFog.No wind100%30.09 "Hg2 mi
2:30 AM39 °FPassing clouds.No wind100%30.09 "Hg4 mi
2:00 AM41 °FPassing clouds.No wind93%30.09 "Hg4 mi
1:30 AM41 °FPassing clouds.1 mph93%30.09 "Hg4 mi
1:00 AM41 °FPassing clouds.1 mph100%30.09 "Hg4 mi
12:30 AM41 °FPassing clouds.1 mph100%30.09 "Hg4 mi
12:00 AM43 °FPassing clouds.3 mph93%30.09 "Hg4 mi
11:30 PM
Sep 21
41 °FFog.3 mph93%30.09 "Hg4 mi
11:00 PM41 °FFog.3 mph100%30.09 "Hg3 mi
10:30 PM41 °FFog.3 mph93%30.09 "Hg3 mi
10:00 PM43 °FFog.1 mph93%30.09 "Hg3 mi
9:30 PM43 °FFog.No wind100%30.09 "Hg3 mi
9:00 PM45 °FFog.1 mph93%30.09 "Hg1 mi
8:30 PM46 °FFog.1 mph93%30.09 "Hg2 mi
8:00 PM46 °FFog.1 mph93%30.09 "Hg4 mi
Weather by CustomWeather, © 2014

See weather overviewHow to use our weather pages